TimeEST,TemperatureF,Dew PointF,Humidity,Sea Level PressureIn,VisibilityMPH,Wind Direction,Wind SpeedMPH,Gust SpeedMPH,PrecipitationIn,Events,Conditions,WindDirDegrees,DateUTC
12:54 AM,39.9,32.0,73,29.97,10.0,WNW,8.1,-,N/A,,Overcast,300,2013-02-16 05:54:00
1:54 AM,39.9,32.0,73,29.96,10.0,NNW,9.2,-,N/A,,Overcast,330,2013-02-16 06:54:00
2:54 AM,39.0,32.0,76,29.95,10.0,NNW,9.2,-,N/A,,Overcast,340,2013-02-16 07:54:00
3:54 AM,37.9,32.0,79,29.94,10.0,NNW,9.2,-,N/A,,Overcast,330,2013-02-16 08:54:00
4:54 AM,37.0,32.0,82,29.95,10.0,NNW,10.4,-,N/A,,Overcast,330,2013-02-16 09:54:00
5:54 AM,37.0,32.0,82,29.95,10.0,NNW,8.1,-,N/A,,Overcast,340,2013-02-16 10:54:00
6:54 AM,37.0,32.0,82,29.94,10.0,North,5.8,-,N/A,,Overcast,360,2013-02-16 11:54:00
7:24 AM,37.0,32.0,82,29.94,10.0,North,8.1,-,N/A,,Overcast,350,2013-02-16 12:24:00
7:54 AM,37.0,32.0,82,29.93,10.0,North,9.2,-,N/A,,Overcast,350,2013-02-16 12:54:00
8:01 AM,37.0,32.0,82,29.93,10.0,North,10.4,-,N/A,,Overcast,350,2013-02-16 13:01:00
8:16 AM,37.0,32.0,82,29.94,10.0,NNW,10.4,-,N/A,,Overcast,330,2013-02-16 13:16:00
8:54 AM,37.0,32.0,82,29.94,10.0,NNW,11.5,-,N/A,,Mostly Cloudy,340,2013-02-16 13:54:00
9:54 AM,37.9,32.0,79,29.94,10.0,North,10.4,-,N/A,,Overcast,350,2013-02-16 14:54:00
10:54 AM,37.0,32.0,82,29.93,10.0,North,9.2,-,0.00,,Overcast,350,2013-02-16 15:54:00
11:14 AM,36.0,32.0,86,29.92,10.0,North,9.2,-,0.00,,Overcast,350,2013-02-16 16:14:00
11:31 AM,35.1,32.0,89,29.92,7.0,NNW,9.2,-,0.01,Snow,Light Snow,340,2013-02-16 16:31:00
11:54 AM,36.0,33.1,89,29.91,9.0,North,9.2,-,0.02,Snow,Light Snow,350,2013-02-16 16:54:00
12:54 PM,36.0,32.0,86,29.89,3.0,North,11.5,-,0.01,Snow,Light Snow,360,2013-02-16 17:54:00
1:20 PM,36.0,33.1,89,29.88,3.0,North,9.2,-,0.00,,Overcast,360,2013-02-16 18:20:00
1:41 PM,36.0,33.1,89,29.87,3.0,North,8.1,-,0.01,Snow,Light Snow,10,2013-02-16 18:41:00
1:54 PM,36.0,33.1,89,29.87,10.0,North,9.2,-,0.01,Rain,Light Rain,10,2013-02-16 18:54:00
2:15 PM,36.0,33.1,89,29.86,3.0,North,9.2,-,0.00,,Overcast,10,2013-02-16 19:15:00
2:54 PM,37.0,33.1,86,29.86,10.0,North,6.9,-,0.00,,Overcast,10,2013-02-16 19:54:00
3:54 PM,37.0,33.1,86,29.83,10.0,North,5.8,-,N/A,,Overcast,10,2013-02-16 20:54:00
4:31 PM,37.0,30.9,79,29.83,10.0,North,11.5,-,N/A,,Overcast,350,2013-02-16 21:31:00
4:38 PM,37.0,30.0,76,29.83,10.0,North,11.5,-,N/A,,Overcast,360,2013-02-16 21:38:00
4:54 PM,36.0,28.9,76,29.83,10.0,North,11.5,-,N/A,,Overcast,350,2013-02-16 21:54:00
5:54 PM,35.1,25.0,67,29.81,10.0,NNW,12.7,21.9,N/A,,Overcast,340,2013-02-16 22:54:00
6:54 PM,35.1,23.0,61,29.81,10.0,North,16.1,-,N/A,,Overcast,360,2013-02-16 23:54:00
7:54 PM,32.0,25.0,75,29.82,4.0,NNW,12.7,24.2,0.00,Snow,Light Snow,340,2013-02-17 00:54:00
8:21 PM,30.9,26.1,82,29.81,1.8,North,11.5,-,0.00,Snow,Light Snow,350,2013-02-17 01:21:00
8:44 PM,30.0,26.1,85,29.82,2.0,NNW,8.1,-,0.01,Snow,Light Snow,340,2013-02-17 01:44:00
8:54 PM,30.0,26.1,85,29.81,2.0,NNW,8.1,-,0.01,Snow,Light Snow,340,2013-02-17 01:54:00
9:10 PM,30.0,27.0,88,29.80,4.0,North,9.2,-,0.00,Snow,Light Snow,350,2013-02-17 02:10:00
9:54 PM,30.0,23.0,75,29.79,3.0,North,12.7,-,0.00,Snow,Light Snow,350,2013-02-17 02:54:00
10:26 PM,28.9,23.0,78,29.77,3.0,NNW,9.2,-,0.00,Snow,Light Snow,340,2013-02-17 03:26:00
10:54 PM,30.0,21.9,72,29.77,7.0,North,16.1,-,0.00,Snow,Light Snow,350,2013-02-17 03:54:00
11:54 PM,30.9,18.0,59,29.73,10.0,North,18.4,27.6,0.00,,Overcast,350,2013-02-17 04:54:00